TimeCDT,TemperatureF,Dew PointF,Humidity,Sea Level PressureIn,VisibilityMPH,Wind Direction,Wind SpeedMPH,Gust SpeedMPH,PrecipitationIn,Events,Conditions,WindDirDegrees,DateUTC
12:53 AM,33.1,26.1,75,30.24,10.0,SW,4.6,-,N/A,,Clear,230,2013-03-20 05:53:00
1:53 AM,33.1,26.1,75,30.24,10.0,West,5.8,-,N/A,,Clear,260,2013-03-20 06:53:00
2:53 AM,30.9,26.1,82,30.22,10.0,West,4.6,-,N/A,,Clear,260,2013-03-20 07:53:00
3:53 AM,30.9,25.0,79,30.21,10.0,West,4.6,-,N/A,,Clear,260,2013-03-20 08:53:00
4:53 AM,30.9,26.1,82,30.21,10.0,West,6.9,-,N/A,,Clear,270,2013-03-20 09:53:00
5:53 AM,30.0,25.0,82,30.23,10.0,WSW,4.6,-,N/A,,Clear,250,2013-03-20 10:53:00
6:53 AM,30.9,26.1,82,30.25,10.0,West,4.6,-,N/A,,Mostly Cloudy,260,2013-03-20 11:53:00
7:39 AM,30.2,26.6,86,30.24,10.0,West,3.5,-,N/A,,Scattered Clouds,270,2013-03-20 12:39:00
7:48 AM,30.2,26.6,86,30.24,10.0,WNW,3.5,-,N/A,,Mostly Cloudy,290,2013-03-20 12:48:00
7:53 AM,30.9,27.0,85,30.27,10.0,Calm,Calm,-,N/A,,Mostly Cloudy,0,2013-03-20 12:53:00
8:48 AM,35.6,28.4,75,30.27,10.0,NNW,10.4,19.6,N/A,,Scattered Clouds,330,2013-03-20 13:48:00
8:53 AM,37.0,28.9,73,30.29,10.0,NNW,10.4,17.3,N/A,,Partly Cloudy,340,2013-03-20 13:53:00
9:53 AM,37.0,26.1,65,30.31,10.0,NNW,15.0,27.6,N/A,,Mostly Cloudy,340,2013-03-20 14:53:00
10:31 AM,37.4,24.8,60,30.28,10.0,NNW,12.7,24.2,N/A,,Mostly Cloudy,330,2013-03-20 15:31:00
10:53 AM,39.9,23.0,51,30.30,10.0,NW,10.4,-,N/A,,Mostly Cloudy,310,2013-03-20 15:53:00
11:53 AM,43.0,19.9,40,30.27,10.0,NW,19.6,25.3,N/A,,Clear,320,2013-03-20 16:53:00
12:53 PM,44.1,15.1,31,30.25,10.0,NW,11.5,23.0,N/A,,Clear,310,2013-03-20 17:53:00
1:53 PM,46.0,12.0,25,30.22,10.0,WNW,16.1,25.3,N/A,,Clear,300,2013-03-20 18:53:00
2:53 PM,45.0,9.0,23,30.19,10.0,NW,21.9,34.5,N/A,,Clear,310,2013-03-20 19:53:00
3:53 PM,44.1,-0.0,16,30.17,10.0,WNW,23.0,34.5,N/A,,Clear,300,2013-03-20 20:53:00
4:53 PM,43.0,5.0,21,30.15,10.0,NW,15.0,25.3,N/A,,Clear,310,2013-03-20 21:53:00
5:53 PM,41.0,6.1,24,30.15,10.0,NW,13.8,-,N/A,,Clear,320,2013-03-20 22:53:00
6:53 PM,37.9,9.0,30,30.15,10.0,NNW,15.0,20.7,N/A,,Clear,330,2013-03-20 23:53:00
7:53 PM,34.0,7.0,32,30.15,10.0,NNW,4.6,-,N/A,,Clear,330,2013-03-21 00:53:00
8:53 PM,30.9,8.1,38,30.15,10.0,NW,4.6,-,N/A,,Clear,310,2013-03-21 01:53:00
9:53 PM,30.0,8.1,40,30.15,10.0,NW,4.6,-,N/A,,Clear,310,2013-03-21 02:53:00
10:53 PM,28.0,8.1,43,30.14,10.0,Calm,Calm,-,N/A,,Clear,0,2013-03-21 03:53:00
11:53 PM,26.1,9.0,49,30.15,10.0,Calm,Calm,-,N/A,,Clear,0,2013-03-21 04:53:00